Page, AZ

12:26 AM MDT on April 25, 2017 (GMT -0600)
Page Municipal

Weather History for KPGA - January, 2012

Change the Weather History Date:

Friday, January 20, 2012

  Actual Average Record
Temperature  
Mean Temperature 46 °F -  
Max Temperature 57 °F 43 °F 61 °F (1986)
Min Temperature 36 °F 27 °F 7 °F (1963)
Degree Days  
Heating Degree Days 18    
Moisture  
Dew Point 15 °F    
Average Humidity 31    
Maximum Humidity 45    
Minimum Humidity 16    
Precipitation  
Precipitation 0.00 in - - ()
Sea Level Pressure  
Sea Level Pressure 29.96 in    
Wind  
Wind Speed 3 mph (ESE)    
Max Wind Speed 6 mph    
Max Gust Speed -    
Visibility 10 miles    
Events      
Averages and records for this station are not official NWS values.
T = Trace of Precipitation, MM = Missing Value Source: NWS Daily Summary

Daily Weather History Graph

Daily Weather History Graph

Search for Another Location

Airport or City:

Trip Planner

Search our weather history database for the weather conditions in past years. The results will help you decide how hot, cold, wet, or windy it might be!

Date:

Astronomy

Jan. 20, 2012 Rise Set
Actual Time 7:36 AM MST 5:37 PM MST
Civil Twilight 7:08 AM MST 6:05 PM MST
Nautical Twilight 6:36 AM MST 6:37 PM MST
Astronomical Twilight 6:05 AM MST 7:08 PM MST
Moon 5:15 AM MST (1/20) 3:14 PM MST (1/20)
Length of Visible Light 10h 57m
Length of Day
10h 01m
Waning Crescent, 8% of the Moon is Illuminated
Jan 20
Waning Crescent
Jan 23
New
Jan 30
First Quarter
Feb 7
Full
Feb 14
Last Quarter

Hourly Weather History & Observations

Time (MST) Temp. Windchill Dew Point Humidity Pressure Visibility Wind Dir Wind Speed Gust Speed Precip Events Conditions
12:53 AM 39.9 °F 37.8 °F 19.0 °F 43% 29.90 in 8.0 mi WSW 3.5 mph - N/A   Clear
1:53 AM 39.0 °F 35.7 °F 19.0 °F 45% 29.90 in 10.0 mi SE 4.6 mph - N/A   Clear
2:53 AM 39.0 °F 35.7 °F 19.0 °F 45% 29.90 in 10.0 mi SE 4.6 mph - N/A   Clear
3:53 AM 39.9 °F - 19.0 °F 43% 29.90 in 10.0 mi Calm Calm - N/A   Overcast
4:53 AM 39.9 °F - 19.9 °F 45% 29.91 in 10.0 mi Calm Calm - N/A   Mostly Cloudy
5:53 AM 39.9 °F 37.8 °F 17.1 °F 40% 29.93 in 10.0 mi SSE 3.5 mph - N/A   Clear
6:53 AM 36.0 °F 31.1 °F 16.0 °F 44% 29.97 in 10.0 mi SSE 5.8 mph - N/A   Clear
7:53 AM 37.0 °F - 17.1 °F 44% 29.99 in 10.0 mi Calm Calm - N/A   Clear
8:53 AM 44.1 °F 42.5 °F 17.1 °F 34% 30.01 in 8.0 mi SSE 3.5 mph - N/A   Clear
9:53 AM 48.0 °F - 15.1 °F 27% 30.03 in 10.0 mi SSE 3.5 mph - N/A   Clear
10:53 AM 50.0 °F - 14.0 °F 24% 30.05 in 10.0 mi NE 5.8 mph - N/A   Clear
11:53 AM 52.0 °F - 12.0 °F 20% 30.03 in 10.0 mi NE 5.8 mph - N/A   Clear
12:53 PM 55.0 °F - 10.9 °F 17% 29.98 in 10.0 mi NE 5.8 mph - N/A   Clear
1:53 PM 55.9 °F - 10.9 °F 17% 29.96 in 10.0 mi NNE 5.8 mph - N/A   Clear
2:53 PM 55.9 °F - 10.0 °F 16% 29.95 in 10.0 mi NNE 4.6 mph - N/A   Clear
3:53 PM 57.0 °F - 15.1 °F 19% 29.94 in 10.0 mi NNE 4.6 mph - N/A   Clear
4:53 PM 55.0 °F - 14.0 °F 20% 29.96 in 10.0 mi North 3.5 mph - N/A   Clear
5:53 PM 50.0 °F - 12.9 °F 23% 29.98 in 10.0 mi Calm Calm - N/A   Clear
6:53 PM 48.0 °F - 14.0 °F 26% 30.00 in 5.0 mi West 3.5 mph - N/A   Haze
7:53 PM 45.0 °F - 14.0 °F 29% 30.00 in 10.0 mi Calm Calm - N/A   Clear
8:53 PM 44.1 °F 42.5 °F 12.9 °F 28% 29.99 in 10.0 mi SSE 3.5 mph - N/A   Clear
9:53 PM 42.1 °F 40.2 °F 15.1 °F 34% 29.98 in 8.0 mi WSW 3.5 mph - N/A   Clear
10:53 PM 41.0 °F 39.0 °F 15.1 °F 35% 29.97 in 8.0 mi WSW 3.5 mph - N/A   Clear
11:53 PM 43.0 °F - 15.1 °F 32% 29.93 in 10.0 mi Calm Calm - N/A   Clear